Location: Cahas Mountain Overlook
(37.0833°N, 80.1000°W)
Time: 19:35:31
(UTC-04:00)

Explorer 7 - Pass Details

Date: 08 February 2026
Orbit: 430 x 541 km, 50.2° (Epoch: 13 March)

Event Time Altitude Azimuth Distance (km) Brightness Sun altitude
Rises 18:42:14 0° 239° (WSW) 2,471 11.7 -10.3°
Reaches altitude 10° 18:44:20 10° 242° (WSW) 1,619 10.6 -10.7°
Maximum altitude 18:47:58 63° 324° (NW) 542 6.9 -11.4°
Enters shadow 18:51:14 14° 45° (NE) 1,483 8.5 -12.1°
Drops below altitude 10° 18:51:47 10° 46° (NE) 1,698 - -12.2°
Sets 18:54:03 0° 50° (NE) 2,607 - -12.6°
